FENGYUN 1C DEB

Satellite information

Favourite Embed

Satellite Type and Status

DEBRISIN ORBIT

Key statistics

Satellite FENGYUN 1C DEB at a glance.

Uptime

9555

Days in orbit

Revolutions

≈ 14.4

Per day

Orbit

SSO

Sun Synchronous Orbit

Inclination

98.9

Latest

Satellite identification and parameters

Extended collection of information and parameters for FENGYUN 1C DEB.

Object identification

Identified? True

Debris? True

Object name: FENGYUN 1C DEB

International designator: 1999-025AJE

Object number (NORAD): 30516

Object ID (CCSDS): 30516

Country: PEOPLES REPUBLIC OF CHINA (PRC)

Current information (Y/N): Y

RCS size: SMALL

Orbital parameters

Period: 100.088 minutes

Inclination: 98.8561 deg

SMA: 7140.809 km

Apoapsis: 769.941 km

Periapsis: 755.406 km

RAAN: 286.4493 deg

Eccentricy: 0.0010178

Argument of periapsis: 65.533 deg

Mean anomaly: 62.3309 deg

Mean motion: 14.38737879 rev/day

Mean motion (dot): 0.00004361 rev/day2

B* drag term: 0.0014343 1/REarth

Two-line elements (TLE)

Creation date: July 6, 2025, 10:46 p.m.

Reference frame: TEME

Reference center: EARTH

Epoch: July 6, 2025, 6:47 p.m. UTC

TLE line 0: 0 FENGYUN 1C DEB

TLE line 1: 1 30516U 99025AJE 25187.78273241 .00004361 00000-0 14343-2 0 9998

TLE line 2: 2 30516 98.8561 286.4493 0010178 65.5330 62.3309 14.38737879954513

Live tracking on map

Real-time ground track for satellite FENGYUN 1C DEB.

In-orbit conjunctions

A list of the most updated potential collisions computed for object FENGYUN 1C DEB.

Target Orbit TCA Probability of collision Miss distance Type
TITAN 3C TRANSTAGE DEB LEO 2025-05-29 08:48:03 0.0001527497 264.0 (m) DEBRIS
IRIDIUM 42 LEO 2025-03-29 15:13:54 0.0002367582 463.0 (m) PAYLOAD
CZ-6A DEB LEO 2024-12-31 18:28:02 0.0001358965 691.0 (m) DEBRIS

Associated space launch

Chinese polar orbiting meteorological satellite

FENGYUN 1C DEB was lifted into orbit during the mission ‘Long March 4B | Feng Yun 1C’, on board a Long March 4B space rocket.

The launch took place on May 10, 1999, 1:33 a.m. from Launch Complex 7.

For more information about the launch, click the button.

Launch to space Long March 4B | Feng Yun 1C
Long March 4B | Feng Yun 1C

Agency: N/A

Status: Launch Successful

Launch date: May 10, 1999, 1:33 a.m. UTC

Rocket: Long March 4B

Launch pad: Launch Complex 7

Location: Taiyuan Satellite Launch Center, People's Republic of China

...

Latest news about this satellite

There are no fresh news available about this satellite. Check back as we update our databases every day.


Newsletter sign-up

Weekly statistics, charts and insights to help you stay on top of the space industry.